,,Stat5,,Stat1,,Stat2,,Stat3,,Stat4,,Wind1,,Wind1,
time,status,PA1M_AVG,status,PR1M_SUM,status,RH1M_AVG,status,SR1M_AVG,status,TA1M_AVG,status,W1dAve1m,status,W1sAve1m,
2002-01-04, 00:00:00,VALID,920.237,VALID,0,VALID,82.7235,VALID,-0.0339617,VALID,19.8158,VALID,62,VALID,2.64901,
2002-01-04, 00:01:00,VALID,920.237,VALID,0,VALID,81.8761,VALID,-0.0169808,VALID,19.9341,VALID,54,VALID,3.02693,
2002-01-04, 00:02:00,VALID,920.209,VALID,0,VALID,81.3967,VALID,-0.0339617,VALID,20.0625,VALID,50,VALID,2.2794,
2002-01-04, 00:03:00,VALID,920.205,VALID,0,VALID,81.6675,VALID,-0.0169808,VALID,20.0501,VALID,52,VALID,1.6174,
2002-01-04, 00:04:00,VALID,920.191,VALID,0,VALID,82.1596,VALID,-0.0509425,VALID,19.9691,VALID,52,VALID,1.1345,
2002-01-04, 00:05:00,VALID,920.135,VALID,0,VALID,82.4597,VALID,-0.0169808,VALID,19.9211,VALID,57,VALID,1.13778,
2002-01-04, 00:06:00,VALID,920.129,VALID,0,VALID,82.8717,VALID,-0.0169808,VALID,19.8429,VALID,64,VALID,1.67248,
2002-01-04, 00:07:00,VALID,920.101,VALID,0,VALID,83.0498,VALID,-0.0339617,VALID,19.7653,VALID,53,VALID,1.35067,
2002-01-04, 00:08:00,VALID,920.096,VALID,0,VALID,82.7776,VALID,0,VALID,19.7758,VALID,52,VALID,1.78192,
2002-01-04, 00:09:00,VALID,920.078,VALID,0,VALID,82.4381,VALID,0,VALID,19.7912,VALID,77,VALID,1.42887,
2002-01-04, 00:10:00,VALID,920.079,VALID,0,VALID,82.3784,VALID,-0.0339617,VALID,19.8394,VALID,79,VALID,1.14343,
2002-01-04, 00:11:00,VALID,920.063,VALID,0,VALID,82.2957,VALID,-0.0169808,VALID,19.8757,VALID,89,VALID,1.25863,
2002-01-04, 00:12:00,VALID,920.031,VALID,0,VALID,82.5119,VALID,-0.0169808,VALID,19.8426,VALID,67,VALID,1.44121,
2002-01-04, 00:13:00,VALID,920.025,VALID,0,VALID,82.7586,VALID,-0.0509425,VALID,19.8148,VALID,68,VALID,1.68072,
2002-01-04, 00:14:00,VALID,920.002,VALID,0,VALID,82.9086,VALID,-0.0169808,VALID,19.7917,VALID,79,VALID,1.39323,
2002-01-04, 00:15:00,VALID,920.003,VALID,0,VALID,83.0447,VALID,0,VALID,19.7656,VALID,86,VALID,0.984581,
2002-01-04, 00:16:00,VALID,919.988,VALID,0,VALID,83.3817,VALID,-0.0339617,VALID,19.7136,VALID,83,VALID,0.804102,
2002-01-04, 00:17:00,VALID,919.973,VALID,0,VALID,84.0823,VALID,-0.0339617,VALID,19.6204,VALID,86,VALID,0.745477,
2002-01-04, 00:18:00,VALID,919.973,VALID,0,VALID,84.7944,VALID,0,VALID,19.5205,VALID,128,VALID,0.5956,
2002-01-04, 00:19:00,VALID,919.967,VALID,0,VALID,85.1568,VALID,-0.0339617,VALID,19.4522,VALID,113,VALID,1.14741,
2002-01-04, 00:20:00,VALID,919.959,VALID,0,VALID,84.886,VALID,-0.0169808,VALID,19.4463,VALID,106,VALID,0.989453,
2002-01-04, 00:21:00,VALID,919.954,VALID,0,VALID,85.0703,VALID,-0.0169808,VALID,19.4296,VALID,101,VALID,1.10526,
2002-01-04, 00:22:00,VALID,919.95,VALID,0,VALID,85.05,VALID,-0.135847,VALID,19.4149,VALID,83,VALID,1.00361,
2002-01-04, 00:23:00,VALID,919.948,VALID,0,VALID,85.4226,VALID,-0.118866,VALID,19.3928,VALID,98,VALID,1.00987,
2002-01-04, 00:24:00,VALID,919.925,VALID,0,VALID,85.4569,VALID,-0.135847,VALID,19.3893,VALID,113,VALID,1.03379,
2002-01-04, 00:25:00,VALID,919.911,VALID,0,VALID,84.8504,VALID,-0.135847,VALID,19.4343,VALID,88,VALID,2.09354,
2002-01-04, 00:26:00,VALID,919.896,VALID,0,VALID,84.3481,VALID,-0.118866,VALID,19.5608,VALID,127,VALID,0.924137,
2002-01-04, 00:27:00,VALID,919.906,VALID,0,VALID,84.1777,VALID,-0.118866,VALID,19.5832,VALID,142,VALID,1.69963,
2002-01-04, 00:28:00,VALID,919.919,VALID,0,VALID,84.2781,VALID,-0.118866,VALID,19.6095,VALID,129,VALID,1.63047,
2002-01-04, 00:29:00,VALID,919.93,VALID,0,VALID,84.6037,VALID,-0.101885,VALID,19.5894,VALID,135,VALID,1.58676,
2002-01-04, 00:30:00,VALID,919.926,VALID,0,VALID,84.7029,VALID,-0.118866,VALID,19.5829,VALID,126,VALID,1.83534,
2002-01-04, 00:31:00,VALID,919.915,VALID,0,VALID,84.6901,VALID,-0.135847,VALID,19.5864,VALID,126,VALID,1.34087,
2002-01-04, 00:32:00,VALID,919.895,VALID,0,VALID,84.844,VALID,-0.135847,VALID,19.5931,VALID,122,VALID,1.76543,
2002-01-04, 00:33:00,VALID,919.887,VALID,0,VALID,85.064,VALID,-0.101885,VALID,19.5568,VALID,121,VALID,1.55016,
2002-01-04, 00:34:00,VALID,919.849,VALID,0,VALID,85.1886,VALID,-0.101885,VALID,19.5372,VALID,136,VALID,1.16221,
2002-01-04, 00:35:00,VALID,919.817,VALID,0,VALID,85.434,VALID,-0.101885,VALID,19.4895,VALID,153,VALID,1.6509,
2002-01-04, 00:36:00,VALID,919.797,VALID,0,VALID,85.5777,VALID,-0.118866,VALID,19.4507,VALID,139,VALID,1.43066,
2002-01-04, 00:37:00,VALID,919.782,VALID,0,VALID,85.8486,VALID,-0.0339617,VALID,19.3978,VALID,141,VALID,1.62212,
2002-01-04, 00:38:00,VALID,919.794,VALID,0,VALID,85.9656,VALID,-0.0679233,VALID,19.3593,VALID,141,VALID,2.02564,
2002-01-04, 00:39:00,VALID,919.797,VALID,0,VALID,85.4595,VALID,-0.0679233,VALID,19.3824,VALID,132,VALID,1.7646,
2002-01-04, 00:40:00,VALID,919.798,VALID,0,VALID,85.2064,VALID,-0.0169808,VALID,19.4594,VALID,135,VALID,1.44922,
2002-01-04, 00:41:00,VALID,919.82,VALID,0,VALID,85.3959,VALID,-0.0509425,VALID,19.4778,VALID,141,VALID,1.53433,
2002-01-04, 00:42:00,VALID,919.814,VALID,0,VALID,85.5243,VALID,0,VALID,19.4979,VALID,130,VALID,1.43524,
2002-01-04, 00:43:00,VALID,919.829,VALID,0,VALID,85.6349,VALID,-0.0169808,VALID,19.45,VALID,136,VALID,1.28207,
2002-01-04, 00:44:00,VALID,919.835,VALID,0,VALID,85.7596,VALID,-0.0169808,VALID,19.4043,VALID,136,VALID,1.51113,
2002-01-04, 00:45:00,VALID,919.83,VALID,0,VALID,85.1784,VALID,-0.0339617,VALID,19.3916,VALID,142,VALID,2.3197,
2002-01-04, 00:46:00,VALID,919.808,VALID,0,VALID,84.788,VALID,-0.0339617,VALID,19.5007,VALID,140,VALID,1.60677,
2002-01-04, 00:47:00,VALID,919.804,VALID,0,VALID,85.1149,VALID,-0.0339617,VALID,19.5566,VALID,142,VALID,1.57134,
2002-01-04, 00:48:00,VALID,919.8,VALID,0,VALID,85.504,VALID,-0.0849042,VALID,19.5046,VALID,131,VALID,1.30195,
2002-01-04, 00:49:00,VALID,919.778,VALID,0,VALID,85.9096,VALID,-0.0169808,VALID,19.4303,VALID,131,VALID,1.03577,
2002-01-04, 00:50:00,VALID,919.761,VALID,0,VALID,86.2822,VALID,-0.0339617,VALID,19.3429,VALID,120,VALID,1.41262,
2002-01-04, 00:51:00,VALID,919.736,VALID,0,VALID,86.5034,VALID,-0.0509425,VALID,19.2979,VALID,128,VALID,1.3345,
2002-01-04, 00:52:00,VALID,919.721,VALID,0,VALID,86.6153,VALID,-0.0679233,VALID,19.2691,VALID,125,VALID,1.71992,
2002-01-04, 00:53:00,VALID,919.716,VALID,0,VALID,86.534,VALID,-0.0169808,VALID,19.285,VALID,121,VALID,1.72122,
2002-01-04, 00:54:00,VALID,919.708,VALID,0,VALID,86.4691,VALID,-0.0509425,VALID,19.3044,VALID,122,VALID,1.45994,
2002-01-04, 00:55:00,VALID,919.698,VALID,0,VALID,86.3356,VALID,-0.0339617,VALID,19.3362,VALID,133,VALID,1.3896,
2002-01-04, 00:56:00,VALID,919.669,VALID,0,VALID,86.3191,VALID,-0.0849042,VALID,19.3496,VALID,129,VALID,1.1502,
2002-01-04, 00:57:00,VALID,919.652,VALID,0,VALID,86.4208,VALID,-0.0509425,VALID,19.3464,VALID,125,VALID,1.11123,
2002-01-04, 00:58:00,VALID,919.635,VALID,0,VALID,86.539,VALID,-0.0509425,VALID,19.3106,VALID,117,VALID,0.764186,
2002-01-04, 00:59:00,VALID,919.614,VALID,0,VALID,86.8302,VALID,-0.0679233,VALID,19.2718,VALID,116,VALID,1.20107,
2002-01-04, 01:00:00,VALID,919.606,VALID,0,VALID,87.0464,VALID,-0.0509425,VALID,19.2432,VALID,125,VALID,1.44844,
2002-01-04, 01:01:00,VALID,919.587,VALID,0,VALID,86.9587,VALID,-0.0339617,VALID,19.2335,VALID,118,VALID,1.37253,
2002-01-04, 01:02:00,VALID,919.594,VALID,0,VALID,86.8531,VALID,-0.0509425,VALID,19.2457,VALID,123,VALID,1.54848,
2002-01-04, 01:03:00,VALID,919.605,VALID,0,VALID,86.8188,VALID,-0.0339617,VALID,19.2591,VALID,122,VALID,1.4486,
2002-01-04, 01:04:00,VALID,919.594,VALID,0,VALID,86.8277,VALID,-0.0339617,VALID,19.2624,VALID,132,VALID,1.30469,
2002-01-04, 01:05:00,VALID,919.576,VALID,0,VALID,86.9269,VALID,-0.0509425,VALID,19.246,VALID,134,VALID,1.43586,
2002-01-04, 01:06:00,VALID,919.57,VALID,0,VALID,86.8837,VALID,-0.0509425,VALID,19.243,VALID,133,VALID,1.49794,
2002-01-04, 01:07:00,VALID,919.554,VALID,0,VALID,86.8099,VALID,-0.0509425,VALID,19.2557,VALID,136,VALID,1.05428,
2002-01-04, 01:08:00,VALID,919.549,VALID,0,VALID,86.8569,VALID,-0.0339617,VALID,19.2755,VALID,140,VALID,1.2625,
2002-01-04, 01:09:00,VALID,919.533,VALID,0,VALID,86.9307,VALID,-0.0509425,VALID,19.2693,VALID,139,VALID,1.48499,
2002-01-04, 01:10:00,VALID,919.535,VALID,0,VALID,87.0731,VALID,-0.0509425,VALID,19.2365,VALID,130,VALID,1.01122,
2002-01-04, 01:11:00,VALID,919.544,VALID,0,VALID,87.3541,VALID,-0.0679233,VALID,19.159,VALID,135,VALID,0.720395,
2002-01-04, 01:12:00,VALID,919.542,VALID,0,VALID,87.8488,VALID,-0.0679233,VALID,19.0815,VALID,135,VALID,1.13652,
2002-01-04, 01:13:00,VALID,919.542,VALID,0,VALID,88.0294,VALID,-0.0339617,VALID,19.0462,VALID,137,VALID,2.08697,
2002-01-04, 01:14:00,VALID,919.527,VALID,0,VALID,87.7852,VALID,-0.0509425,VALID,19.0658,VALID,133,VALID,1.35588,
2002-01-04, 01:15:00,VALID,919.516,VALID,0,VALID,87.7509,VALID,-0.0679233,VALID,19.0817,VALID,121,VALID,1.45744,
2002-01-04, 01:16:00,VALID,919.499,VALID,0,VALID,87.6161,VALID,-0.0169808,VALID,19.1272,VALID,136,VALID,1.37402,
2002-01-04, 01:17:00,VALID,919.466,VALID,0,VALID,87.7522,VALID,-0.0509425,VALID,19.1336,VALID,146,VALID,1.62637,
2002-01-04, 01:18:00,VALID,919.466,VALID,0,VALID,87.9213,VALID,-0.0509425,VALID,19.1269,VALID,151,VALID,1.82953,
2002-01-04, 01:19:00,VALID,919.457,VALID,0,VALID,88.1642,VALID,-0.0339617,VALID,19.1202,VALID,136,VALID,1.79831,
2002-01-04, 01:20:00,VALID,919.437,VALID,0,VALID,88.1642,VALID,-0.0169808,VALID,19.1036,VALID,121,VALID,1.50312,
2002-01-04, 01:21:00,VALID,919.443,VALID,0,VALID,88.2227,VALID,-0.0169808,VALID,19.1106,VALID,136,VALID,1.3051,
2002-01-04, 01:22:00,VALID,919.435,VALID,0,VALID,88.3524,VALID,-0.0169808,VALID,19.1043,VALID,152,VALID,1.9303,
2002-01-04, 01:23:00,VALID,919.421,VALID,0,VALID,88.1858,VALID,-0.0339617,VALID,19.1168,VALID,135,VALID,1.6028,
2002-01-04, 01:24:00,VALID,919.416,VALID,0,VALID,88.2684,VALID,-0.0169808,VALID,19.1272,VALID,144,VALID,1.55449,
2002-01-04, 01:25:00,VALID,919.4,VALID,0,VALID,88.463,VALID,0,VALID,19.0976,VALID,134,VALID,1.43873,
2002-01-04, 01:26:00,VALID,919.374,VALID,0,VALID,88.58,VALID,-0.0339617,VALID,19.0847,VALID,138,VALID,1.122,
2002-01-04, 01:27:00,VALID,919.36,VALID,0,VALID,88.4655,VALID,-0.0339617,VALID,19.0686,VALID,136,VALID,1.1801,
2002-01-04, 01:28:00,VALID,919.339,VALID,0,VALID,88.3562,VALID,-0.0169808,VALID,19.0621,VALID,136,VALID,1.1877,
2002-01-04, 01:29:00,VALID,919.333,VALID,0,VALID,88.4528,VALID,-0.0169808,VALID,19.0556,VALID,124,VALID,1.29338,
2002-01-04, 01:30:00,VALID,919.319,VALID,0,VALID,88.4706,VALID,-0.0339617,VALID,19.0626,VALID,118,VALID,1.16016,
2002-01-04, 01:31:00,VALID,919.289,VALID,0,VALID,88.5253,VALID,-0.0339617,VALID,19.0623,VALID,133,VALID,1.17948,
2002-01-04, 01:32:00,VALID,919.269,VALID,0,VALID,88.5978,VALID,0,VALID,19.0499,VALID,139,VALID,1.1918,
2002-01-04, 01:33:00,VALID,919.261,VALID,0,VALID,88.6715,VALID,0,VALID,19.004,VALID,133,VALID,0.800987,
2002-01-04, 01:34:00,VALID,919.239,VALID,0,VALID,89.095,VALID,-0.0169808,VALID,18.9691,VALID,143,VALID,1.41186,
2002-01-04, 01:35:00,VALID,919.224,VALID,0,VALID,89.2361,VALID,-0.0509425,VALID,18.9465,VALID,139,VALID,1.15152,
2002-01-04, 01:36:00,VALID,919.194,VALID,0,VALID,89.4243,VALID,-0.0509425,VALID,18.9078,VALID,143,VALID,1.39414,
2002-01-04, 01:37:00,VALID,919.187,VALID,0,VALID,89.4332,VALID,0,VALID,18.8867,VALID,145,VALID,1.51521,
2002-01-04, 01:38:00,VALID,919.178,VALID,0,VALID,89.4892,VALID,0.0169808,VALID,18.8681,VALID,146,VALID,1.70025,
2002-01-04, 01:39:00,VALID,919.182,VALID,0,VALID,89.4726,VALID,0.0169808,VALID,18.8512,VALID,146,VALID,1.71032,
2002-01-04, 01:40:00,VALID,919.187,VALID,0,VALID,89.4027,VALID,0,VALID,18.8641,VALID,137,VALID,1.30508,
2002-01-04, 01:41:00,VALID,919.197,VALID,0,VALID,89.4129,VALID,0,VALID,18.8648,VALID,135,VALID,1.49856,
2002-01-04, 01:42:00,VALID,919.198,VALID,0,VALID,89.5171,VALID,0.0169808,VALID,18.8475,VALID,136,VALID,1.49099,
2002-01-04, 01:43:00,VALID,919.186,VALID,0,VALID,89.5718,VALID,0,VALID,18.8547,VALID,131,VALID,1.49013,
2002-01-04, 01:44:00,VALID,919.167,VALID,0,VALID,89.3328,VALID,0.0169808,VALID,18.887,VALID,121,VALID,1.11504,
2002-01-04, 01:45:00,VALID,919.187,VALID,0,VALID,89.2832,VALID,0,VALID,18.8937,VALID,121,VALID,1.41488,
2002-01-04, 01:46:00,VALID,919.187,VALID,0,VALID,89.2806,VALID,0.0169808,VALID,18.8867,VALID,135,VALID,1.07463,
2002-01-04, 01:47:00,VALID,919.182,VALID,0,VALID,89.4408,VALID,0,VALID,18.8934,VALID,124,VALID,1.31702,
2002-01-04, 01:48:00,VALID,919.173,VALID,0,VALID,89.4815,VALID,0,VALID,18.8738,VALID,118,VALID,0.996484,
2002-01-04, 01:49:00,VALID,919.183,VALID,0,VALID,89.7142,VALID,0.0339617,VALID,18.8579,VALID,128,VALID,1.43771,
2002-01-04, 01:50:00,VALID,919.189,VALID,0,VALID,89.7931,VALID,0.0169808,VALID,18.8381,VALID,129,VALID,1.375,
2002-01-04, 01:51:00,VALID,919.197,VALID,0,VALID,89.9152,VALID,0.0169808,VALID,18.8251,VALID,133,VALID,1.19161,
2002-01-04, 01:52:00,VALID,919.185,VALID,0,VALID,90.0347,VALID,0,VALID,18.8067,VALID,128,VALID,1.37363,
2002-01-04, 01:53:00,VALID,919.169,VALID,0,VALID,90.2318,VALID,0,VALID,18.7573,VALID,137,VALID,1.14885,
2002-01-04, 01:54:00,VALID,919.151,VALID,0,VALID,90.4403,VALID,0.0339617,VALID,18.7382,VALID,136,VALID,1.45045,
2002-01-04, 01:55:00,VALID,919.13,VALID,0,VALID,90.3958,VALID,0.0339617,VALID,18.7481,VALID,145,VALID,1.63919,
2002-01-04, 01:56:00,VALID,919.109,VALID,0,VALID,90.2852,VALID,0,VALID,18.7737,VALID,132,VALID,1.43535,
2002-01-04, 01:57:00,VALID,919.107,VALID,0,VALID,90.2216,VALID,0.0169808,VALID,18.7963,VALID,138,VALID,1.62212,
2002-01-04, 01:58:00,VALID,919.088,VALID,0,VALID,90.0716,VALID,0.0169808,VALID,18.8254,VALID,141,VALID,1.44832,
2002-01-04, 01:59:00,VALID,919.076,VALID,0,VALID,89.9724,VALID,0.0169808,VALID,18.8517,VALID,126,VALID,1.15522,
2002-01-04, 02:00:00,VALID,919.076,VALID,0,VALID,90.1326,VALID,0,VALID,18.8258,VALID,118,VALID,1.5043,
2002-01-04, 02:01:00,VALID,919.054,VALID,0,VALID,90.1313,VALID,-0.0169808,VALID,18.7965,VALID,130,VALID,1.16961,
2002-01-04, 02:02:00,VALID,919.035,VALID,0,VALID,90.2865,VALID,0.0169808,VALID,18.7642,VALID,137,VALID,1.15707,
2002-01-04, 02:03:00,VALID,919.013,VALID,0,VALID,90.5039,VALID,0.0169808,VALID,18.7352,VALID,131,VALID,1.23026,
2002-01-04, 02:04:00,VALID,919.005,VALID,0,VALID,90.6323,VALID,0,VALID,18.7029,VALID,143,VALID,1.60859,
2002-01-04, 02:05:00,VALID,918.987,VALID,0,VALID,90.4683,VALID,0.0339617,VALID,18.7093,VALID,141,VALID,1.69223,
2002-01-04, 02:06:00,VALID,918.981,VALID,0,VALID,90.2267,VALID,0.0169808,VALID,18.7516,VALID,136,VALID,1.48177,
2002-01-04, 02:07:00,VALID,918.991,VALID,0,VALID,90.2712,VALID,-0.0679233,VALID,18.7495,VALID,139,VALID,1.51953,
2002-01-04, 02:08:00,VALID,918.969,VALID,0,VALID,90.5001,VALID,-0.0849042,VALID,18.7364,VALID,140,VALID,1.9916,
2002-01-04, 02:09:00,VALID,918.948,VALID,0,VALID,90.3094,VALID,-0.0509425,VALID,18.756,VALID,134,VALID,1.44326,
2002-01-04, 02:10:00,VALID,918.951,VALID,0,VALID,90.242,VALID,-0.0849042,VALID,18.7657,VALID,127,VALID,1.34848,
2002-01-04, 02:11:00,VALID,918.947,VALID,0,VALID,90.3221,VALID,-0.0849042,VALID,18.75,VALID,133,VALID,1.28742,
2002-01-04, 02:12:00,VALID,918.943,VALID,0,VALID,90.2941,VALID,-0.0679233,VALID,18.7299,VALID,118,VALID,1.51855,
2002-01-04, 02:13:00,VALID,918.925,VALID,0,VALID,90.4721,VALID,-0.0849042,VALID,18.7045,VALID,127,VALID,1.43133,
2002-01-04, 02:14:00,VALID,918.911,VALID,0,VALID,90.6819,VALID,-0.101885,VALID,18.6787,VALID,138,VALID,1.64944,
2002-01-04, 02:15:00,VALID,918.889,VALID,0,VALID,90.7379,VALID,-0.0849042,VALID,18.6755,VALID,145,VALID,1.51069,
2002-01-04, 02:16:00,VALID,918.868,VALID,0,VALID,90.7608,VALID,-0.0849042,VALID,18.6556,VALID,124,VALID,1.15801,
2002-01-04, 02:17:00,VALID,918.864,VALID,0,VALID,90.762,VALID,-0.0849042,VALID,18.6462,VALID,116,VALID,1.79235,
2002-01-04, 02:18:00,VALID,918.87,VALID,0,VALID,90.6946,VALID,-0.0849042,VALID,18.6432,VALID,122,VALID,1.15111,
2002-01-04, 02:19:00,VALID,918.881,VALID,0,VALID,90.8358,VALID,-0.0679233,VALID,18.6206,VALID,124,VALID,1.46525,
2002-01-04, 02:20:00,VALID,918.876,VALID,0,VALID,90.9464,VALID,-0.0849042,VALID,18.6016,VALID,124,VALID,1.54551,
2002-01-04, 02:21:00,VALID,918.871,VALID,0,VALID,90.8981,VALID,-0.0679233,VALID,18.5885,VALID,118,VALID,1.57895,
2002-01-04, 02:22:00,VALID,918.855,VALID,0,VALID,90.7582,VALID,-0.101885,VALID,18.588,VALID,121,VALID,1.73177,
2002-01-04, 02:23:00,VALID,918.85,VALID,0,VALID,90.6069,VALID,-0.101885,VALID,18.6074,VALID,114,VALID,1.44634,
2002-01-04, 02:24:00,VALID,918.847,VALID,0,VALID,90.4759,VALID,-0.101885,VALID,18.6236,VALID,115,VALID,1.3709,
2002-01-04, 02:25:00,VALID,918.849,VALID,0,VALID,90.5395,VALID,-0.118866,VALID,18.6203,VALID,113,VALID,1.4632,
2002-01-04, 02:26:00,VALID,918.837,VALID,0,VALID,90.6069,VALID,-0.0849042,VALID,18.6272,VALID,124,VALID,1.33162,
2002-01-04, 02:27:00,VALID,918.833,VALID,0,VALID,90.5904,VALID,-0.0849042,VALID,18.624,VALID,123,VALID,1.31887,
2002-01-04, 02:28:00,VALID,918.822,VALID,0,VALID,90.4454,VALID,-0.101885,VALID,18.6432,VALID,119,VALID,1.06074,
2002-01-04, 02:29:00,VALID,918.812,VALID,0,VALID,90.2165,VALID,-0.101885,VALID,18.6688,VALID,111,VALID,1.37377,
2002-01-04, 02:30:00,VALID,918.802,VALID,0,VALID,89.8312,VALID,-0.0849042,VALID,18.7209,VALID,97,VALID,1.40765,
2002-01-04, 02:31:00,VALID,918.777,VALID,0,VALID,89.2946,VALID,-0.0849042,VALID,18.7721,VALID,115,VALID,1.39309,
2002-01-04, 02:32:00,VALID,918.773,VALID,0,VALID,88.7071,VALID,-0.101885,VALID,18.8665,VALID,88,VALID,1.51152,
2002-01-04, 02:33:00,VALID,918.764,VALID,0,VALID,88.1705,VALID,-0.0849042,VALID,18.9237,VALID,89,VALID,1.35999,
2002-01-04, 02:34:00,VALID,918.758,VALID,0,VALID,87.6848,VALID,-0.0679233,VALID,18.9821,VALID,98,VALID,1.86575,
2002-01-04, 02:35:00,VALID,918.74,VALID,0,VALID,86.9523,VALID,-0.0509425,VALID,19.0402,VALID,77,VALID,1.49219,
2002-01-04, 02:36:00,VALID,918.726,VALID,0,VALID,86.7056,VALID,-0.0509425,VALID,19.0499,VALID,77,VALID,1.29121,
2002-01-04, 02:37:00,VALID,918.703,VALID,0,VALID,86.3547,VALID,-0.0509425,VALID,19.0561,VALID,81,VALID,1.50637,
2002-01-04, 02:38:00,VALID,918.683,VALID,0,VALID,86.0355,VALID,-0.0169808,VALID,19.0988,VALID,87,VALID,1.5609,
2002-01-04, 02:39:00,VALID,918.68,VALID,0,VALID,86.1067,VALID,-0.101885,VALID,19.1214,VALID,112,VALID,1.57895,
2002-01-04, 02:40:00,VALID,918.683,VALID,0,VALID,86.1627,VALID,-0.0679233,VALID,19.1734,VALID,127,VALID,1.53164,
2002-01-04, 02:41:00,VALID,918.698,VALID,0,VALID,86.6103,VALID,-0.0509425,VALID,19.16,VALID,125,VALID,1.55942,
2002-01-04, 02:42:00,VALID,918.711,VALID,0,VALID,86.9345,VALID,-0.0679233,VALID,19.1475,VALID,138,VALID,1.1285,
2002-01-04, 02:43:00,VALID,918.719,VALID,0,VALID,87.3096,VALID,-0.101885,VALID,19.0924,VALID,127,VALID,1.35526,
2002-01-04, 02:44:00,VALID,918.712,VALID,0,VALID,87.5309,VALID,-0.0169808,VALID,19.034,VALID,132,VALID,1.20879,
2002-01-04, 02:45:00,VALID,918.715,VALID,0,VALID,87.7649,VALID,-0.0339617,VALID,18.9848,VALID,129,VALID,0.926604,
2002-01-04, 02:46:00,VALID,918.725,VALID,0,VALID,88.0052,VALID,-0.0169808,VALID,18.9696,VALID,137,VALID,1.71995,
2002-01-04, 02:47:00,VALID,918.725,VALID,0,VALID,87.8577,VALID,-0.0679233,VALID,18.9766,VALID,116,VALID,1.81147,
2002-01-04, 02:48:00,VALID,918.744,VALID,0,VALID,87.5856,VALID,-0.0509425,VALID,18.9985,VALID,126,VALID,0.882031,
2002-01-04, 02:49:00,VALID,918.744,VALID,0,VALID,87.7318,VALID,-0.0339617,VALID,19.0017,VALID,96,VALID,1.1433,
2002-01-04, 02:50:00,VALID,918.742,VALID,0,VALID,87.99,VALID,-0.0339617,VALID,18.9657,VALID,117,VALID,0.965049,
2002-01-04, 02:51:00,VALID,918.732,VALID,0,VALID,88.0879,VALID,-0.0849042,VALID,18.9435,VALID,127,VALID,1.18236,
2002-01-04, 02:52:00,VALID,918.726,VALID,0,VALID,88.2824,VALID,-0.0509425,VALID,18.9112,VALID,122,VALID,1.06289,
2002-01-04, 02:53:00,VALID,918.726,VALID,0,VALID,88.4515,VALID,-0.0169808,VALID,18.8755,VALID,111,VALID,0.922697,
2002-01-04, 02:54:00,VALID,918.743,VALID,0,VALID,88.5164,VALID,-0.0339617,VALID,18.8596,VALID,114,VALID,1.13922,
2002-01-04, 02:55:00,VALID,918.74,VALID,0,VALID,88.3206,VALID,-0.0679233,VALID,18.8889,VALID,124,VALID,1.18586,
2002-01-04, 02:56:00,VALID,918.73,VALID,0,VALID,88.2023,VALID,-0.0509425,VALID,18.9045,VALID,122,VALID,1.16055,
2002-01-04, 02:57:00,VALID,918.716,VALID,0,VALID,88.1286,VALID,-0.0339617,VALID,18.9045,VALID,113,VALID,1.32093,
2002-01-04, 02:58:00,VALID,918.704,VALID,0,VALID,88.2697,VALID,-0.0339617,VALID,18.8787,VALID,125,VALID,1.34169,
2002-01-04, 02:59:00,VALID,918.68,VALID,0,VALID,88.4058,VALID,-0.0849042,VALID,18.8437,VALID,149,VALID,1.70929,
2002-01-04, 03:00:00,VALID,918.683,VALID,0,VALID,88.6575,VALID,-0.0339617,VALID,18.7922,VALID,139,VALID,1.1748,
2002-01-04, 03:01:00,VALID,918.688,VALID,0,VALID,88.8559,VALID,-0.0509425,VALID,18.7078,VALID,101,VALID,1.02488,
2002-01-04, 03:02:00,VALID,918.695,VALID,0,VALID,89.4854,VALID,-0.0169808,VALID,18.6496,VALID,118,VALID,1.47015,
2002-01-04, 03:03:00,VALID,918.698,VALID,0,VALID,89.6138,VALID,-0.0679233,VALID,18.6238,VALID,118,VALID,1.02508,
2002-01-04, 03:04:00,VALID,918.713,VALID,0,VALID,89.554,VALID,-0.0339617,VALID,18.6109,VALID,103,VALID,0.905664,
2002-01-04, 03:05:00,VALID,918.727,VALID,0,VALID,89.6863,VALID,-0.0849042,VALID,18.5917,VALID,117,VALID,0.915296,
2002-01-04, 03:06:00,VALID,918.73,VALID,0,VALID,89.7142,VALID,0,VALID,18.5624,VALID,115,VALID,0.647615,
2002-01-04, 03:07:00,VALID,918.736,VALID,0,VALID,89.8808,VALID,-0.0679233,VALID,18.5015,VALID,95,VALID,0.660773,
2002-01-04, 03:08:00,VALID,918.752,VALID,0,VALID,90.2394,VALID,0,VALID,18.4203,VALID,90,VALID,0.694141,
2002-01-04, 03:09:00,VALID,918.762,VALID,0,VALID,90.7493,VALID,-0.0339617,VALID,18.3465,VALID,112,VALID,1.02734,
2002-01-04, 03:10:00,VALID,918.77,VALID,0,VALID,91.0469,VALID,-0.0679233,VALID,18.3107,VALID,125,VALID,0.951923,
2002-01-04, 03:11:00,VALID,918.779,VALID,0,VALID,91.0049,VALID,-0.0679233,VALID,18.2976,VALID,135,VALID,1.08141,
2002-01-04, 03:12:00,VALID,918.793,VALID,0,VALID,90.9604,VALID,-0.0679233,VALID,18.3006,VALID,146,VALID,1.33613,
2002-01-04, 03:13:00,VALID,918.787,VALID,0,VALID,91.1461,VALID,-0.0509425,VALID,18.3301,VALID,147,VALID,1.80428,
2002-01-04, 03:14:00,VALID,918.784,VALID,0,VALID,91.0876,VALID,-0.0509425,VALID,18.3661,VALID,147,VALID,1.35752,
2002-01-04, 03:15:00,VALID,918.769,VALID,0,VALID,91.0952,VALID,-0.0339617,VALID,18.3626,VALID,142,VALID,1.39597,
2002-01-04, 03:16:00,VALID,918.765,VALID,0,VALID,91.0952,VALID,-0.0339617,VALID,18.3626,VALID,152,VALID,1.24395,
2002-01-04, 03:17:00,VALID,918.748,VALID,0,VALID,91.2478,VALID,-0.101885,VALID,18.3338,VALID,149,VALID,1.42044,
2002-01-04, 03:18:00,VALID,918.738,VALID,0,VALID,91.3622,VALID,-0.101885,VALID,18.3174,VALID,152,VALID,1.25621,
2002-01-04, 03:19:00,VALID,918.73,VALID,0,VALID,91.3979,VALID,-0.0509425,VALID,18.3047,VALID,155,VALID,1.29811,
2002-01-04, 03:20:00,VALID,918.718,VALID,0,VALID,91.6445,VALID,-0.0509425,VALID,18.2561,VALID,154,VALID,1.18359,
2002-01-04, 03:21:00,VALID,918.713,VALID,0,VALID,92.012,VALID,-0.0849042,VALID,18.2044,VALID,151,VALID,1.46423,
2002-01-04, 03:22:00,VALID,918.721,VALID,0,VALID,92.2689,VALID,0,VALID,18.1419,VALID,139,VALID,1.07381,
2002-01-04, 03:23:00,VALID,918.722,VALID,0,VALID,92.6237,VALID,0.0169808,VALID,18.0863,VALID,144,VALID,1.75041,
2002-01-04, 03:24:00,VALID,918.729,VALID,0,VALID,92.7648,VALID,0.0339617,VALID,18.0835,VALID,143,VALID,1.37793,
2002-01-04, 03:25:00,VALID,918.731,VALID,0,VALID,92.6339,VALID,0,VALID,18.0413,VALID,142,VALID,1.21073,
2002-01-04, 03:26:00,VALID,918.714,VALID,0,VALID,92.7241,VALID,0.0169808,VALID,18.0125,VALID,145,VALID,1.35317,
2002-01-04, 03:27:00,VALID,918.701,VALID,0,VALID,92.9314,VALID,0.0339617,VALID,18.0093,VALID,139,VALID,1.46978,
2002-01-04, 03:28:00,VALID,918.697,VALID,0,VALID,92.8538,VALID,0.0849042,VALID,17.9636,VALID,121,VALID,0.718945,
2002-01-04, 03:29:00,VALID,918.688,VALID,0,VALID,93.1336,VALID,0.0509425,VALID,17.9412,VALID,119,VALID,0.824836,
2002-01-04, 03:30:00,VALID,918.676,VALID,0,VALID,93.2379,VALID,0.0339617,VALID,17.9417,VALID,135,VALID,0.861842,
2002-01-04, 03:31:00,VALID,918.675,VALID,0,VALID,93.2557,VALID,0.0509425,VALID,17.9322,VALID,142,VALID,1.02755,